Tracking 19281 objects as of 16-Nov-2018
HD Live streaming from Space Station
objects crossing your sky now

LES 6

Track LES 6 now!
LES 6 is classified as:


NORAD ID: 3431
Int'l Code: 1968-081D
Perigee: 35,734.6 km
Apogee: 35,841.3 km
Inclination: 5.5 °
Period: 1,435.8 minutes
Semi major axis: 42158 km
RCS: 3.1622 m2 (large)
Launch date: September 26, 1968
Source: United States (US)
Launch site: AIR FORCE EASTERN TEST RANGE (AFETR)
aabbcc
Your satellite tracking list
Your tracking list is empty




NASA's NSSDC Master Catalog

Two Line Element Set (TLE):
1  3431U 68081D   18319.43776722 -.00000291 +00000-0 +00000-0 0  9997
2  3431 005.5498 308.9143 0012653 340.9048 222.1399 01.00292534093003
Source of the keplerian elements: AFSPC